| time (UTC) | temp F | wind direction | speed MPH | gust MPH | rain 1hr in | rain 24hr in | rain mn in | humidity % | barometer mb |
| 20260506044553 | 76 | 175 | 7.0 | 11.0 | 0.00 | 0.00 | 0.00 | 70 | 1008.6 |
| 20260506043050 | 76 | 160 | 7.0 | 13.0 | 0.00 | 0.00 | 0.00 | 70 | 1008.5 |
| 20260506041554 | 76 | 165 | 7.0 | 11.0 | 0.00 | 0.00 | 0.00 | 70 | 1008.5 |
| 20260506040049 | 76 | 148 | 3.0 | 8.0 | 0.00 | 0.00 | 0.00 | 70 | 1008.6 |
| 20260506034553 | 76 | 147 | 2.0 | 7.0 | 0.00 | 0.00 | 0.00 | 70 | 1008.7 |
| 20260506033056 | 76 | 132 | 5.0 | 9.0 | 0.00 | 0.00 | 0.00 | 70 | 1008.4 |
| 20260506031547 | 76 | 142 | 3.0 | 7.0 | 0.00 | 0.00 | 0.00 | 70 | 1008.3 |
| 20260506030057 | 77 | 140 | 3.0 | 10.0 | 0.00 | 0.00 | 0.00 | 70 | 1008.0 |
| 20260506024557 | 77 | 143 | 4.0 | 8.0 | 0.00 | 0.00 | 0.00 | 70 | 1007.7 |
| 20260506023046 | 77 | 146 | 3.0 | 6.0 | 0.00 | 0.00 | 0.00 | 70 | 1007.6 |
| 20260506021555 | 77 | 120 | 2.0 | 5.0 | 0.00 | 0.00 | 0.00 | 70 | 1007.5 |
| 20260506020044 | 77 | 149 | 4.0 | 10.0 | 0.00 | 0.00 | 0.00 | 70 | 1007.3 |
| 20260506014544 | 78 | 157 | 3.0 | 10.0 | 0.00 | 0.00 | 0.00 | 70 | 1007.2 |
| 20260506013046 | 78 | 142 | 4.0 | 11.0 | 0.00 | 0.00 | 0.00 | 69 | 1006.8 |
| 20260506011607 | 79 | 129 | 7.0 | 15.0 | 0.00 | 0.00 | 0.00 | 69 | 1006.6 |
| 20260506010042 | 79 | 135 | 9.0 | 17.0 | 0.00 | 0.00 | 0.00 | 68 | 1006.4 |
| 20260506004545 | 80 | 144 | 9.0 | 14.0 | 0.00 | 0.00 | 0.00 | 67 | 1006.4 |
| 20260506003043 | 80 | 137 | 9.0 | 16.0 | 0.00 | 0.00 | 0.00 | 67 | 1006.2 |
| 20260506001542 | 81 | 155 | 6.0 | 12.0 | 0.00 | 0.00 | 0.00 | 66 | 1006.1 |
| 20260506000046 | 81 | 134 | 9.0 | 15.0 | 0.00 | 0.00 | 0.00 | 66 | 1006.0 |
| 20260505234539 | 82 | 145 | 9.0 | 17.0 | 0.00 | 0.00 | 0.00 | 65 | 1005.9 |
| 20260505233037 | 82 | 159 | 10.0 | 21.0 | 0.00 | 0.00 | 0.00 | 64 | 1005.8 |
| 20260505231541 | 83 | 138 | 10.0 | 17.0 | 0.00 | 0.00 | 0.00 | 63 | 1005.8 |
| 20260505230035 | 84 | 140 | 9.0 | 17.0 | 0.00 | 0.00 | 0.00 | 62 | 1005.7 |
| 20260505224534 | 85 | 145 | 10.0 | 17.0 | 0.00 | 0.00 | 0.00 | 61 | 1005.7 |
| 20260505223035 | 85 | 140 | 12.0 | 18.0 | 0.00 | 0.00 | 0.00 | 60 | 1005.7 |
| 20260505221534 | 85 | 151 | 7.0 | 11.0 | 0.00 | 0.00 | 0.00 | 60 | 1005.7 |
| 20260505220046 | 85 | 161 | 12.0 | 18.0 | 0.00 | 0.00 | 0.00 | 60 | 1006.0 |
| 20260505214533 | 85 | 360 | 9.0 | 17.0 | 0.00 | 0.00 | 0.00 | 59 | 1006.0 |
| 20260505213031 | 86 | 360 | 11.0 | 15.0 | 0.00 | 0.00 | 0.00 | 59 | 1006.2 |
| 20260505211524 | 86 | 155 | 9.0 | 14.0 | 0.00 | 0.00 | 0.00 | 59 | 1006.5 |
| 20260505210023 | 86 | 96 | 8.0 | 17.0 | 0.00 | 0.00 | 0.00 | 60 | 1006.6 |
| 20260505204523 | 85 | 180 | 9.0 | 15.0 | 0.00 | 0.00 | 0.00 | 60 | 1007.0 |
| 20260505203018 | 85 | 173 | 11.0 | 16.0 | 0.00 | 0.00 | 0.00 | 60 | 1007.1 |
| 20260505201517 | 84 | 194 | 8.0 | 15.0 | 0.00 | 0.00 | 0.00 | 61 | 1007.3 |
| 20260505200011 | 84 | 186 | 10.0 | 14.0 | 0.00 | 0.00 | 0.00 | 62 | 1007.6 |
| 20260505194518 | 83 | 194 | 9.0 | 14.0 | 0.00 | 0.00 | 0.00 | 63 | 1007.8 |
| 20260505193006 | 83 | 159 | 7.0 | 11.0 | 0.00 | 0.00 | 0.00 | 64 | 1008.2 |
| 20260505191503 | 81 | 172 | 5.0 | 10.0 | 0.00 | 0.00 | 0.00 | 65 | 1008.3 |
| 20260505190100 | 81 | 136 | 7.0 | 10.0 | 0.00 | 0.00 | 0.00 | 65 | 1008.6 |
| 20260505184558 | 80 | 188 | 6.0 | 11.0 | 0.00 | 0.00 | 0.00 | 65 | 1008.6 |
| 20260505183056 | 79 | 186 | 8.0 | 11.0 | 0.00 | 0.00 | 0.00 | 66 | 1008.7 |
| 20260505181552 | 79 | 168 | 5.0 | 10.0 | 0.00 | 0.00 | 0.00 | 66 | 1008.7 |
| 20260505180050 | 78 | 173 | 8.0 | 13.0 | 0.00 | 0.00 | 0.00 | 67 | 1008.7 |
| 20260505174548 | 77 | 171 | 6.0 | 10.0 | 0.00 | 0.00 | 0.00 | 67 | 1008.8 |
| 20260505173045 | 77 | 209 | 6.0 | 9.0 | 0.00 | 0.00 | 0.00 | 67 | 1008.9 |
| 20260505171546 | 76 | 197 | 6.0 | 10.0 | 0.00 | 0.00 | 0.00 | 68 | 1009.0 |
| 20260505170042 | 76 | 182 | 6.0 | 8.0 | 0.00 | 0.00 | 0.00 | 69 | 1009.0 |
| 20260505164554 | 75 | 198 | 5.0 | 9.0 | 0.00 | 0.00 | 0.00 | 70 | 1009.3 |
| 20260505163037 | 75 | 176 | 8.0 | 14.0 | 0.00 | 0.00 | 0.00 | 71 | 1009.2 |
| 20260505161548 | 74 | 185 | 3.0 | 7.0 | 0.00 | 0.00 | 0.00 | 71 | 1009.4 |
| 20260505153032 | 74 | 195 | 4.0 | 9.0 | 0.00 | 0.00 | 0.00 | 75 | 1009.2 |
| 20260505151531 | 74 | 194 | 8.0 | 12.0 | 0.00 | 0.00 | 0.00 | 76 | 1009.2 |
| 20260505124528 | 70 | 163 | 7.0 | 12.0 | 0.00 | 0.00 | 0.00 | 77 | 1008.5 |
| 20260505123015 | 70 | 182 | 6.0 | 11.0 | 0.00 | 0.00 | 0.00 | 76 | 1008.6 |
| 20260505121515 | 70 | 168 | 7.0 | 12.0 | 0.00 | 0.00 | 0.00 | 76 | 1008.4 |
| 20260505120015 | 69 | 176 | 6.0 | 9.0 | 0.00 | 0.00 | 0.00 | 76 | 1008.3 |
| 20260505114513 | 69 | 178 | 5.0 | 10.0 | 0.00 | 0.00 | 0.00 | 75 | 1008.1 |
| 20260505113012 | 69 | 175 | 3.0 | 8.0 | 0.00 | 0.00 | 0.00 | 75 | 1008.3 |
| 20260505111511 | 69 | 178 | 3.0 | 6.0 | 0.00 | 0.00 | 0.00 | 74 | 1008.1 |
| 20260505101507 | 68 | 176 | 3.0 | 7.0 | 0.00 | 0.00 | 0.00 | 73 | 1008.3 |
| 20260505100007 | 68 | 171 | 4.0 | 6.0 | 0.00 | 0.00 | 0.00 | 72 | 1008.3 |
| 20260505094506 | 68 | 169 | 4.0 | 7.0 | 0.00 | 0.00 | 0.00 | 72 | 1008.2 |
| 20260505093004 | 68 | 175 | 4.0 | 7.0 | 0.00 | 0.00 | 0.00 | 71 | 1008.2 |
| 20260505091502 | 68 | 163 | 4.0 | 6.0 | 0.00 | 0.00 | 0.00 | 71 | 1008.4 |
| 20260505090001 | 68 | 180 | 4.0 | 6.0 | 0.00 | 0.00 | 0.00 | 71 | 1008.7 |
| 20260505084503 | 68 | 175 | 4.0 | 6.0 | 0.00 | 0.00 | 0.00 | 70 | 1008.7 |
| 20260505083104 | 68 | 163 | 5.0 | 7.0 | 0.00 | 0.00 | 0.00 | 70 | 1008.6 |
| 20260505081558 | 69 | 179 | 3.0 | 7.0 | 0.00 | 0.00 | 0.00 | 70 | 1009.1 |
| 20260505080111 | 69 | 175 | 4.0 | 8.0 | 0.00 | 0.00 | 0.00 | 70 | 1009.3 |
| 20260505074553 | 69 | 184 | 4.0 | 8.0 | 0.00 | 0.00 | 0.00 | 69 | 1009.4 |
| 20260505073057 | 69 | 190 | 5.0 | 9.0 | 0.00 | 0.00 | 0.00 | 69 | 1009.5 |
| 20260505071551 | 69 | 196 | 6.0 | 12.0 | 0.00 | 0.00 | 0.00 | 69 | 1009.6 |
| 20260505070050 | 69 | 192 | 7.0 | 10.0 | 0.00 | 0.00 | 0.00 | 69 | 1009.7 |
| 20260505064554 | 70 | 184 | 8.0 | 14.0 | 0.00 | 0.00 | 0.00 | 69 | 1009.9 |
| 20260505063045 | 70 | 168 | 10.0 | 14.0 | 0.00 | 0.00 | 0.00 | 69 | 1009.9 |
| 20260505061542 | 70 | 175 | 11.0 | 18.0 | 0.00 | 0.00 | 0.00 | 68 | 1009.8 |
| 20260505060041 | 70 | 166 | 9.0 | 15.0 | 0.00 | 0.00 | 0.00 | 68 | 1010.0 |